Location: Newark
(10.7761°N, 106.6983°E)
Time: 03:55:17
(UTC+00:00)

N. Korean satellite - Visible Passes

Search period start: 18 July 2019 00:00
Search period end: 28 July 2019 00:00
Orbit: 456 x 508 km, 97.2° (Epoch: 17 July)

Date Brightness Start Highest point End Pass type
(mag) Time Alt. Az. Time Alt. Az. Time Alt. Az.
20 Jul 9.4 21:59:09 10° NE 22:01:55 20° E 22:04:41 10° SSE visible
23 Jul 8.3 22:16:30 10° NNE 22:19:58 38° E 22:23:26 10° S visible
24 Jul 9.6 21:52:35 10° ENE 21:54:52 16° E 21:57:09 10° SE visible
27 Jul 8.8 22:09:38 10° NE 22:12:55 29° E 22:16:09 10° SSE visible
